Location: Caltech
(34.1382°N, 118.1253°W)
Time: 01:38:31
(UTC-07:00)

AO-7 - Visible Passes

Search period start: 01 October 2016 00:00
Search period end: 11 October 2016 00:00
Orbit: 1440 x 1459 km, 101.6° (Epoch: 30 September)

Date Brightness Start Highest point End Pass type
(mag) Time Alt. Az. Time Alt. Az. Time Alt. Az.
01 Oct ? 03:48:07 10° NE 03:55:37 37° E 04:03:05 10° SSE visible
01 Oct ? 05:40:41 10° N 05:48:21 44° WNW 05:56:01 10° SW visible
02 Oct ? 02:52:02 10° ENE 02:55:01 12° E 02:58:01 10° ESE visible
02 Oct ? 04:40:24 10° NNE 04:48:44 82° ESE 04:57:03 10° SSW visible
03 Oct ? 03:41:20 10° NE 03:48:37 33° E 03:55:50 10° SSE visible
03 Oct ? 05:33:38 10° N 05:41:27 48° WNW 05:49:16 10° SW visible
04 Oct ? 02:47:00 10° E 02:47:57 10° E 02:48:53 10° E visible
04 Oct ? 04:33:28 10° NNE 04:41:47 74° ESE 04:50:04 10° S visible
05 Oct ? 03:34:36 10° NE 03:41:35 29° E 03:48:32 10° SSE visible
05 Oct ? 05:26:35 10° N 05:34:32 53° WNW 05:42:30 10° SW visible
06 Oct ? 04:26:32 10° NNE 04:34:48 67° ESE 04:43:03 10° S visible
06 Oct ? 06:20:35 10° N 06:26:51 25° WNW 06:33:08 10° WSW visible
07 Oct ? 03:27:53 10° NE 03:34:34 26° E 03:41:11 10° SSE visible
07 Oct ? 05:19:32 10° N 05:27:37 59° WNW 05:35:42 10° SW visible
08 Oct ? 04:19:38 10° NNE 04:27:50 61° ESE 04:36:00 10° S visible
08 Oct ? 06:13:24 10° N 06:20:00 27° WNW 06:26:36 10° WSW visible
09 Oct ? 03:21:14 10° NE 03:27:31 23° E 03:33:47 10° SE visible
09 Oct ? 05:12:31 10° N 05:20:42 65° WNW 05:28:52 10° SSW visible
10 Oct ? 04:12:44 10° NNE 04:20:51 55° ESE 04:28:55 10° S visible
10 Oct ? 06:06:16 10° N 06:13:08 30° WNW 06:20:01 10° WSW visible
